Location: Newark
(44.9861°N, 0.2536°E)
Time: 18:43:04
(UTC+00:00)

HuskySat-1 - Pass Details

Date: 11 July 2020
Orbit: 457 x 471 km, 51.6° (Epoch: 11 August)

Event Time Altitude Azimuth Distance (km) Brightness Sun altitude
Exits shadow 01:20:43 41° 286° (WNW) 683 ? -20.7°
Maximum altitude 01:21:37 54° 336° (NNW) 566 ? -20.7°
Drops below altitude 10° 01:25:12 10° 55° (NE) 1,609 ? -20.5°
Sets 01:27:22 0° 60° (ENE) 2,484 ? -20.3°
